Location: Krakow
(50.0830°N, 19.9170°E)
Time: 13:24:56
(UTC+01:00)

Vanguard 2 - Pass Details

Date: 15 December 2023
Orbit: 553 x 2919 km, 32.9° (Epoch: 24 February)

Event Time Altitude Azimuth Distance (km) Brightness Sun altitude
Rises 21:05:44 0° 261° (W) 6,563 12.7 -50.5°
Reaches altitude 10° 21:10:22 10° 255° (WSW) 5,678 12.2 -51.1°
Enters shadow 21:21:53 35° 219° (SW) 3,984 10.9 -52.7°
